Location: Heisler
(52.6701°N, 112.2239°W)
Time: 14:07:08
(UTC+00:00)

Envisat - Pass Details

Date: 09 December 2021
Orbit: 764 x 766 km, 98.2° (Epoch: 26 January)

Event Time Altitude Azimuth Distance (km) Brightness Sun altitude
Rises 12:24:17 0° 16° (NNE) 3,248 6.4 -26.5°
Reaches altitude 10° 12:26:38 10° 20° (NNE) 2,317 5.6 -26.2°
Maximum altitude 12:31:42 62° 102° (ESE) 861 3.4 -25.4°
Drops below altitude 10° 12:36:44 10° 183° (S) 2,298 5.5 -24.7°
Sets 12:39:03 0° 187° (S) 3,220 6.2 -24.3°
